Location: Newark
(48.4317°S, 179.1125°W)
Time: 13:39:43
(UTC+00:00)

N. Korean satellite - Pass Details

Date: 29 January 2020
Orbit: 456 x 505 km, 97.2° (Epoch: 22 February)

Event Time Altitude Azimuth Distance (km) Brightness Sun altitude
Rises 15:26:32 0° 64° (ENE) 2,621 10.6 -10.4°
Reaches altitude 10° 15:29:37 10° 92° (E) 1,742 10.2 -10.1°
Maximum altitude 15:31:20 13° 119° (ESE) 1,571 10.5 -9.9°
Drops below altitude 10° 15:33:03 10° 146° (SSE) 1,746 10.8 -9.6°
Sets 15:36:08 0° 174° (S) 2,633 11.1 -9.3°
